SCP
0 0 0 0 0 0 0 0 0 0 0 0 0 0 0 0 0 0 0 0 0 0 0 0 0 0 0 0 0 0 0 0 0 0 0 0 0 0 0 0 0 0 0
0 0 0 0 0 0 0 0 0 0 0 0 0 0 0 0 0 0 0 0 0 0 0 0 0 0 0 0 0 0 0 0 0 0 0 0 0 0 0 0 0 0 0
0 0 0 0 0 0 0 0 0 0 0 0 0 0 0 0 0 0 0 0 0 0 0 0 0 0 0 0 0 0 0 0 0 0 0 0 0 0 0 0 0 0 0
0 0 0 0 0 0 0 0 0 0 0 0 0 0 0 0 0 0 0 0 0 0 0 0 0 0 0 0 0 0 0 0 0 0 0 0 0 0 0 0 0 0 0
0 0 0 0 0 0 0 0 0 0 0 0 0 0 0 0 0 0 0 0 0 0 0 0 0 0 0 0 0 0 0 0 0 0 0 0 0 0 0 0 0 0 0
0 0 0 0 0 0 0 0 0 0 0 0 0 0 0 0 0 0 0 0 0 0 0 0 0 0 0 0 0 0 0 0 0 0 0 0 0 0 0 0 0 0 0
0 0 0 0 0 0 0 0 0 0 0 0 0 0 0 0 0 0 0 0 0 0 0 0 0 0 0 0 0 0 0 0 0 0 0 0 0 0 0 0 0 0 0
0 0 0 0 0 0 0 0 0 0 0 0 0 0 0 0 0 0 0 0 0 0 0 0 0 0 0 0 0 0 0 0 0 0 0 0 0 0 0 0 0 0 0
0 0 0 0 0 0 0 0 0 0 0 0 0 0 0 0 0 0 0 0 0 0 0 0 0 0 0 0 0 0 0 0 0 0 0 0 0 0 0 0 0 0 0
0 0 0 0 0 0 0 0 0 0 0 0 0 0 0 0 0 0 0 0 0 0 0 0 0 0 0 0 0 0 0 0 0 0 0 0 0 0 0 0 0 0 0
0 0 0 0 0 0 0 0 0 0 0 0 0 0 0 0 0 0 0 0 0 0 0 0 0 0 0 0 0 0 0 0 0 0 0 0 0 0 0 0 0 0 0
0 0 0 0 0 0 0 0 0 0 0 0 0 0 0 0 0 0 0 0 0 0 0 0 0 0 0 0 0 0 0 0 0 0 0 0 0 0 0 0 0 0 0
0 0 0 0 0 0 0 0 0 0 0 0 0 0 0 0 0 0 0 0 0 0 0 0 0 0 0 0 0 0 0 0 0 0 0 0 0 0 0 0 0 0 0
0 0 0 0 0 0 0 0 0 0 0 0 0 0 0 0 0 0 0 0 0 0 0 0 0 0 0 0 0 0 0 0 0 0 0 0 0 0 0 0 0 0 0
0 0 0 0 0 0 0 0 0 0 0 0 0 0 0 0 0 0 0 0 0 0 0 0 0 0 0 0 0 0 0 0 0 0 0 0 0 0 0 0 0 0 0
0 0 0 0 0 0 0 0 0 0 0 0 0 0 0 0 0 0 0 0 0 0 0 0 0 0 0 0 0 0 0 0 0 0 0 0 0 0 0 0 0 0 0
0 0 0 0 0 0 0 0 0 0 0 0 0 0 0 0 0 0 0 0 0 0 0 0 0 0 0 0 0 0 0 0 0 0 0 0 0 0 0 0 0 0 0
0 0 0 0 0 0 0 0 0 0 0 0 0 0 0 0 0 0 0 0 0 0 0 0 0 0 0 0 0 0 0 0 0 0 0 0 0 0 0 0 0 0 0
0 0 0 0 0 0 0 0 0 0 0 0 0 0 0 0 0 0 0 0 0 0 0 0 0 0 0 0 0 0 0 0 0 0 0 0 0 0 0 0 0 0 0
0 0 0 0 0 0 0 0 0 0 0 0 0 0 0 0 0 0 0 0 0 0 0 0 0 0 0 0 0 0 0 0 0 0 0 0 0 0 0 0 0 0 0
0 0 0 0 0 0 0 0 0 0 0 0 0 0 0 0 0 0 0 0 0 0 0 0 0 0 0 0 0 0 0 0 0 0 0 0 0 0 0 0 0 0 0
0 0 0 0 0 0 0 0 0 0 0 0 0 0 0 0 0 0 0 0 0 0 0 0 0 0 0 0 0 0 0 0 0 0 0 0 0 0 0 0 0 0 0
0 0 0 0 0 0 0 0 0 0 0 0 0 0 0 0 0 0 0 0 0 0 0 0 0 0 0 0 0 0 0 0 0 0 0 0 0 0 0 0 0 0 0
0 0 0 0 0 0 0 0 0 0 0 0 0 0 0 0 0 0 0 0 0 0 0 0 0 0 0 0 0 0 0 0 0 0 0 0 0 0 0 0 0 0 0
0 0 0 0 0 0 0 0 0 0 0 0 0 0 0 0 0 0 0 0 0 0 0 0 0 0 0 0 0 0 0 0 0 0 0 0 0 0 0 0 0 0 0
0 0 0 0 0 0 0 0 0 0 0 0 0 0 0 0 0 0 0 0 0 0 0 0 0 0 0 0 0 0 0 0 0 0 0 0 0 0 0 0 0 0 0
Wind_Speed
1 1 1 1 1 1 1 2 2 2 3 4 4 5 6 6 6 5 4 10 11 12 13 13 13 13 13 13 12 12 11 10 10 9 9 8 7 6 6 5 4 4 3
1 1 2 1 2 2 2 2 3 3 3 3 5 5 6 6 6 6 5 6 11 11 12 14 14 13 13 13 13 12 12 11 11 10 10 9 9 8 8 7 6 6 5
2 1 1 2 2 2 2 2 2 2 3 3 4 5 5 5 5 6 6 5 6 9 11 12 12 12 13 13 12 12 12 12 11 11 11 10 10 10 10 9 8 8 8
3 2 2 2 2 2 2 2 2 2 3 3 3 4 4 4 5 6 5 5 4 5 8 11 11 12 11 12 12 12 12 12 11 12 12 11 10 10 10 11 10 10 10
4 2 2 2 3 2 2 2 2 2 2 3 3 3 3 3 4 4 5 5 5 5 4 7 10 10 10 11 12 12 12 12 11 11 12 12 12 11 11 11 11 12 12
4 3 2 3 2 2 2 2 2 2 2 2 3 3 3 3 3 3 4 4 4 5 5 5 5 6 9 10 11 11 11 11 11 11 12 12 12 13 13 13 12 12 13
4 3 3 3 2 2 2 3 2 2 2 2 1 2 3 3 3 3 3 3 4 5 4 5 4 4 4 9 10 11 11 11 11 12 12 13 13 13 13 13 13 13 13
4 3 3 3 3 2 3 3 2 2 2 1 0 1 2 3 2 3 2 3 4 3 4 4 4 4 4 4 6 9 10 12 13 13 13 12 13 13 14 14 13 13 13
3 3 3 3 3 2 2 3 2 2 2 2 1 2 1 3 2 2 2 2 2 2 3 3 4 4 4 4 4 6 9 11 13 14 13 13 13 13 14 15 15 14 14
4 3 3 3 3 3 3 3 2 2 3 3 2 2 3 2 2 2 2 2 2 3 3 2 3 4 4 4 4 5 6 8 11 13 14 13 13 13 14 14 15 15 14
4 4 3 3 3 3 3 3 3 3 3 3 2 2 2 2 2 3 3 2 2 2 3 3 3 3 3 3 3 4 5 7 10 12 13 14 13 13 13 14 14 14 14
3 4 4 3 3 3 3 3 3 3 3 3 3 2 2 2 2 2 3 3 3 3 3 2 2 2 2 3 4 5 6 7 9 11 13 14 13 13 13 14 13 13 13
3 4 4 3 3 3 3 3 3 3 3 3 3 3 3 3 2 3 3 4 4 3 2 2 2 2 2 2 3 5 6 7 9 11 13 13 12 11 11 12 13 12 12
3 4 4 4 4 4 4 3 2 3 2 2 3 3 3 3 3 3 3 3 4 3 3 3 1 1 1 2 3 5 4 6 8 10 11 12 10 9 9 10 10 10 10
3 4 4 4 4 4 4 3 2 3 2 2 3 3 3 2 2 2 2 3 4 5 4 3 2 1 2 2 3 3 3 6 7 8 8 9 8 7 7 7 8 8 8
3 4 4 4 4 4 4 3 3 2 2 2 2 3 3 2 2 2 2 2 3 4 5 2 2 2 2 3 4 3 3 6 6 7 7 7 7 6 6 6 7 7 7
3 3 4 4 4 4 4 3 3 3 3 3 3 3 3 2 2 2 2 2 2 3 5 4 2 2 2 3 3 3 3 3 4 6 7 6 6 6 6 6 7 7 8
3 3 4 4 4 4 4 3 3 3 3 3 3 3 3 2 3 2 2 2 2 3 4 5 3 2 3 3 3 3 3 3 3 6 7 6 6 6 7 7 7 7 7
4 3 3 4 4 4 4 3 3 3 3 3 3 3 3 3 3 3 3 3 2 3 3 4 4 2 2 2 3 3 3 3 3 4 5 5 6 6 7 7 7 7 7
4 4 4 4 4 4 4 3 3 3 3 3 3 3 4 3 4 3 3 3 3 3 3 3 3 2 2 2 2 2 3 2 3 3 4 4 5 5 6 7 7 6 7
4 4 4 4 4 4 3 3 3 3 3 3 3 4 4 4 5 4 3 3 3 3 3 3 3 3 3 2 2 2 3 3 3 2 2 3 3 2 3 5 6 6 7
4 4 4 4 4 4 5 5 3 2 3 3 4 4 4 4 5 5 5 5 4 4 4 3 3 4 4 3 3 2 2 3 3 1 3 4 2 3 3 3 6 8 8
4 4 3 3 4 5 6 5 4 2 3 3 3 4 3 3 4 3 4 4 4 5 5 4 5 5 4 4 3 3 3 3 4 3 3 4 2 4 3 4 8 8 8
3 3 3 3 3 4 5 5 4 2 2 3 3 3 3 3 3 3 2 3 3 3 4 3 4 4 4 3 3 3 4 3 3 2 2 3 3 3 5 4 6 7 8
3 3 3 3 3 4 6 5 3 1 2 3 3 3 3 3 5 4 2 3 3 3 4 4 3 3 4 5 3 1 2 2 3 3 1 2 2 4 4 4 4 6 8
3 3 3 3 4 4 6 6 4 1 2 2 2 3 4 4 5 4 2 2 3 4 3 2 2 3 2 2 3 2 2 2 2 3 1 1 2 3 4 3 3 3 4
Wind_Direction
342 329 317 314 299 280 258 254 253 255 249 245 243 240 242 236 226 219 223 222 220 222 221 220 218 218 219 220 221 218 216 217 218 219 218 217 220 223 227 231 238 241 248
338 329 324 323 310 294 272 248 248 248 250 247 248 244 244 239 231 226 221 222 222 222 223 223 222 221 223 223 223 223 220 219 219 220 222 224 226 227 230 232 238 242 246
342 335 330 320 305 302 294 278 266 259 259 257 255 250 243 241 235 230 221 217 219 220 221 222 222 222 224 225 224 224 222 222 223 223 224 225 228 231 233 236 241 244 246
351 347 336 314 307 309 299 282 270 267 265 262 259 257 250 245 239 233 222 215 214 215 220 223 223 225 227 228 228 228 226 225 226 226 227 225 227 233 238 240 243 246 248
352 347 328 312 315 315 304 293 283 265 268 274 265 259 254 248 243 235 222 215 213 214 216 223 223 224 225 229 233 234 232 230 228 229 228 229 230 232 238 243 245 247 248
349 348 331 324 329 323 314 305 289 283 264 274 278 275 264 256 245 233 227 224 215 213 213 218 217 223 226 230 235 239 240 236 232 231 232 233 236 238 241 245 248 250 252
348 349 332 330 334 319 306 306 291 295 289 296 300 298 285 259 245 240 231 224 224 216 209 219 219 217 223 227 233 239 243 245 241 237 235 237 241 242 244 247 250 251 253
344 340 331 321 320 313 321 319 302 292 288 298 248 291 295 299 278 254 238 227 233 226 217 221 221 222 222 220 228 233 242 248 248 247 243 242 243 245 248 249 250 254 256
334 327 324 318 314 304 297 297 297 271 271 273 228 213 222 250 291 283 253 238 243 240 238 231 226 228 224 224 231 236 243 250 253 253 253 251 251 250 251 253 253 255 257
323 323 319 316 308 297 291 287 284 271 257 262 270 252 244 235 242 290 289 268 255 245 244 249 238 235 227 226 230 242 249 251 254 258 261 260 258 257 258 258 258 258 257
320 318 314 313 309 302 297 290 286 274 259 250 251 261 262 265 241 241 266 278 280 262 257 247 238 236 235 231 234 251 255 257 260 262 264 266 263 263 264 264 264 265 263
321 323 319 315 309 303 295 290 281 276 267 256 251 243 239 244 242 242 250 263 269 270 268 249 242 241 242 241 251 260 256 259 263 266 268 269 269 267 266 266 267 268 270
315 313 319 312 308 302 296 294 288 282 275 263 257 252 247 247 251 252 258 266 266 273 265 246 232 244 265 264 269 279 269 272 269 269 270 272 276 276 274 272 271 273 274
296 304 310 308 306 301 300 295 284 280 278 266 268 263 254 256 251 247 244 257 269 269 253 248 252 243 285 285 290 291 281 288 280 276 276 278 280 281 281 279 278 279 278
296 310 314 312 306 300 300 295 279 276 276 266 264 263 257 259 258 257 248 240 245 262 262 239 239 278 292 286 301 282 283 297 295 289 285 285 286 287 289 289 285 283 283
293 304 309 309 309 309 307 298 286 281 276 274 265 262 258 257 263 259 250 253 246 249 264 264 258 274 280 299 306 291 284 308 299 299 297 295 293 294 296 299 298 292 288
285 293 300 304 305 305 304 299 291 288 279 279 279 272 270 266 263 266 262 252 254 244 259 273 266 276 276 285 295 284 281 278 288 304 302 302 300 298 297 296 297 296 294
279 282 290 295 297 298 298 292 289 292 286 284 283 281 282 283 273 268 263 258 256 250 249 268 274 276 272 273 273 278 292 298 288 300 300 298 297 296 298 299 298 297 296
278 283 284 284 286 287 286 283 279 282 278 274 274 272 270 267 270 267 262 260 261 266 255 260 270 266 265 277 283 284 287 283 296 297 294 292 293 300 305 304 305 303 299
271 276 276 275 274 273 273 274 271 272 274 275 269 266 263 253 256 256 260 260 259 259 259 262 269 264 258 269 272 281 296 294 301 306 302 303 306 311 311 310 311 309 305
267 267 271 273 273 270 266 262 261 264 268 275 275 270 263 257 254 254 260 257 257 257 260 260 266 268 259 271 274 273 284 298 298 302 299 293 292 290 297 302 305 307 308
271 270 269 269 271 272 273 272 274 268 271 273 276 274 267 263 262 267 271 270 262 256 260 260 263 265 264 259 263 270 275 295 295 300 307 300 293 292 293 285 302 310 311
271 273 266 260 261 268 273 272 273 272 269 269 278 281 281 276 272 259 274 285 283 278 270 256 256 261 264 256 255 264 269 273 276 284 296 287 291 286 289 298 304 310 314
258 261 265 260 262 268 272 274 278 270 266 266 268 268 274 281 276 271 267 277 278 284 284 264 252 259 267 265 246 257 262 277 279 284 279 274 288 287 302 293 296 307 315
248 252 255 252 258 270 271 270 268 256 257 266 269 268 270 271 281 288 283 279 285 291 299 290 280 284 296 303 293 263 267 274 287 290 280 264 287 304 295 283 283 300 309
241 252 256 250 249 259 268 267 255 239 251 269 279 283 280 280 288 291 276 267 279 284 288 297 308 318 317 324 322 267 242 254 281 283 264 273 289 324 307 280 280 291 297